Weather History for Sexton Summit, OR

Change the Weather History Date:

Saturday, February 15, 2014

  Actual Average Record
Temperature  
Mean Temperature 38 °F -  
Max Temperature 45 °F 40 °F 45 °F (2014)
Min Temperature 30 °F 30 °F 30 °F (2014)
Degree Days  
Heating Degree Days 28    
Moisture  
Dew Point 39 °F    
Average Humidity 100    
Maximum Humidity 100    
Minimum Humidity 93    
Precipitation  
Precipitation 0.92 in - - ()
Sea Level Pressure  
Sea Level Pressure 29.74 in    
Wind  
Wind Speed 14 mph (SSW)    
Max Wind Speed 22 mph    
Max Gust Speed 43 mph    
Visibility 2 miles    
Events Fog , Rain    
Averages and records for this station are not official NWS values.
T = Trace of Precipitation, MM = Missing Value Source: NWS Daily Summary

Daily Weather History Graph

Daily Weather History Graph

Search for Another Location

Airport:

Trip Planner

Search our weather history database for the weather conditions in past years. The results will help you decide how hot, cold, wet, or windy it might be!

Date:

Astronomy

Feb. 15, 2014 Rise Set
Actual Time 7:10 AM PST 5:45 PM PST
Civil Twilight 6:41 AM PST 6:14 PM PST
Nautical Twilight 6:08 AM PST 6:47 PM PST
Astronomical Twilight 5:35 AM PST 7:20 PM PST
Moon 6:53 PM PST (2/15) 7:09 AM PST (2/15)
Length of Visible Light 11h 33m
Length of Day
10h 35m
Full, 99% of the Moon is Illuminated
Feb 15
Full
Feb 22
Last Quarter
Mar 1
New
Mar 8
First Quarter
Mar 16
Full

Hourly Weather History & Observations

Time (PST) Temp. Windchill Dew Point Humidity Pressure Visibility Wind Dir Wind Speed Gust Speed Precip Events Conditions
12:21 AM 39.9 °F 31.8 °F 39.9 °F 100% 29.88 in 0.5 mi SSE 15.0 mph - 0.02 in Fog , Rain Rain
12:51 AM 39.2 °F 29.8 °F 39.2 °F 100% 29.86 in 0.2 mi South 18.4 mph - 0.06 in Fog , Rain Light Rain
12:56 AM 39.9 °F 31.1 °F 39.9 °F 100% 29.86 in 0.2 mi South 17.3 mph - 0.06 in Fog , Rain Light Rain
1:56 AM 42.1 °F 33.9 °F 42.1 °F 100% 29.85 in 0.2 mi South 17.3 mph 25.3 mph 0.02 in Fog , Rain Light Rain
2:56 AM 43.0 °F 35.4 °F 43.0 °F 100% 29.82 in 0.2 mi South 16.1 mph 23.0 mph 0.02 in Fog , Rain Light Rain
3:56 AM 43.0 °F 37.2 °F 43.0 °F 100% 29.81 in 0.5 mi South 10.4 mph - 0.11 in Fog , Rain Rain
4:56 AM 44.1 °F 36.8 °F 44.1 °F 100% 29.78 in 0.5 mi South 16.1 mph 26.5 mph 0.17 in Fog , Rain Light Rain
5:26 AM 44.1 °F 35.9 °F 44.1 °F 100% 29.76 in 0.2 mi South 19.6 mph 31.1 mph 0.04 in Fog , Rain Light Rain
5:56 AM 43.0 °F 34.0 °F 43.0 °F 100% 29.76 in 0.2 mi South 21.9 mph 32.2 mph 0.06 in Fog , Rain Light Rain
6:56 AM 44.1 °F 36.8 °F 44.1 °F 100% 29.73 in 0.2 mi South 16.1 mph 34.5 mph 0.01 in Fog Fog
7:56 AM 44.1 °F 36.5 °F 44.1 °F 100% 29.70 in 0.2 mi South 17.3 mph 29.9 mph 0.00 in Fog , Rain Light Rain
8:56 AM 44.1 °F 36.5 °F 44.1 °F 100% 29.71 in 0.2 mi South 17.3 mph 29.9 mph 0.01 in Fog Fog
9:56 AM 43.0 °F 36.0 °F 43.0 °F 100% 29.66 in 0.2 mi South 13.8 mph 25.3 mph N/A Fog Fog
10:04 AM 44.1 °F 37.7 °F 44.1 °F 100% 29.65 in 0.2 mi South 12.7 mph 24.2 mph N/A Fog Fog
10:56 AM 45.0 °F 38.5 °F 45.0 °F 100% 29.63 in 0.2 mi South 13.8 mph 21.9 mph N/A Fog Fog
11:48 AM 44.1 °F 35.9 °F 44.1 °F 100% 29.64 in 0.5 mi South 19.6 mph 31.1 mph N/A Fog Fog
11:56 AM 44.1 °F 35.9 °F 44.1 °F 100% 29.64 in 1.5 mi SSW 19.6 mph 31.1 mph N/A   Overcast
12:02 PM 44.1 °F 36.2 °F 44.1 °F 100% 29.64 in 4.0 mi SSW 18.4 mph 32.2 mph N/A   Overcast
12:10 PM 43.0 °F 35.1 °F 43.0 °F 100% 29.64 in 9.0 mi South 17.3 mph 35.7 mph N/A   Overcast
12:56 PM 44.1 °F 37.1 °F 42.1 °F 93% 29.62 in 10.0 mi South 15.0 mph 35.7 mph 0.00 in   Overcast
1:16 PM 44.1 °F 38.6 °F 42.1 °F 93% 29.62 in 10.0 mi South 10.4 mph 28.8 mph N/A   Overcast
1:25 PM 44.1 °F 37.4 °F 42.1 °F 93% 29.61 in 10.0 mi South 13.8 mph 25.3 mph N/A   Overcast
1:48 PM 44.1 °F 37.4 °F 42.1 °F 93% 29.61 in 9.0 mi SSW 13.8 mph 27.6 mph 0.00 in Rain Light Rain
1:54 PM 42.8 °F 36.2 °F 42.8 °F 100% 29.61 in 1.0 mi South 12.7 mph 25.3 mph 0.00 in Rain Light Rain
1:56 PM 43.0 °F 36.0 °F 43.0 °F 100% 29.60 in 0.5 mi South 13.8 mph 25.3 mph 0.00 in Fog , Rain Light Rain
2:56 PM 42.1 °F 32.8 °F 42.1 °F 100% 29.59 in 0.2 mi SSW 21.9 mph 42.6 mph 0.03 in Fog , Rain Light Rain
3:36 PM 43.0 °F 34.2 °F 43.0 °F 100% 29.59 in 0.2 mi South 20.7 mph 39.1 mph 0.03 in Fog , Rain Light Rain
3:56 PM 43.0 °F 34.2 °F 43.0 °F 100% 29.58 in 0.2 mi South 20.7 mph 40.3 mph 0.06 in Fog , Rain Rain
4:56 PM 43.0 °F 34.8 °F 43.0 °F 100% 29.60 in 0.2 mi SSW 18.4 mph 29.9 mph 0.19 in Fog , Rain Heavy Rain
5:24 PM 41.0 °F 35.2 °F 41.0 °F 100% 29.65 in 0.2 mi SW 9.2 mph 39.1 mph 0.12 in Fog , Rain Rain
5:56 PM 39.9 °F 32.1 °F 39.9 °F 100% 29.68 in 0.5 mi SW 13.8 mph 23.0 mph 0.13 in Fog , Rain Light Rain
6:40 PM 37.0 °F 27.7 °F 37.0 °F 100% 29.70 in 1.5 mi SW 16.1 mph 29.9 mph 0.04 in Rain Light Rain
6:48 PM 36.0 °F 27.1 °F 36.0 °F 100% 29.72 in 2.5 mi SW 13.8 mph 34.5 mph 0.04 in Rain Light Rain
6:56 PM 37.0 °F 28.9 °F 37.0 °F 100% 29.73 in 1.2 mi SW 12.7 mph 26.5 mph 0.04 in   Overcast
7:05 PM 37.0 °F 32.4 °F 37.0 °F 100% 29.73 in 0.8 mi Variable 5.8 mph 19.6 mph N/A   Overcast
7:23 PM 35.1 °F 28.6 °F 35.1 °F 100% 29.74 in 1.5 mi WSW 8.1 mph 18.4 mph N/A   Overcast
7:25 PM 35.1 °F 27.9 °F 35.1 °F 100% 29.74 in 3.0 mi SW 9.2 mph 17.3 mph N/A   Overcast
7:47 PM 34.0 °F 25.5 °F 34.0 °F 100% 29.75 in 7.0 mi SW 11.5 mph 19.6 mph N/A   Mostly Cloudy
7:54 PM 33.8 °F 25.8 °F 33.8 °F 100% 29.76 in 1.5 mi SSW 10.4 mph 20.7 mph N/A   Mostly Cloudy
7:56 PM 35.1 °F 27.4 °F 35.1 °F 100% 29.77 in 0.8 mi SSW 10.4 mph 20.7 mph N/A   Mostly Cloudy
8:08 PM 34.0 °F 23.8 °F 34.0 °F 100% 29.76 in 1.5 mi SSW 16.1 mph 26.5 mph N/A   Overcast
8:19 PM 34.0 °F 28.0 °F 34.0 °F 100% 29.78 in 1.0 mi Variable 6.9 mph 18.4 mph 0.00 in Rain Light Rain
8:21 PM 34.0 °F 28.8 °F 34.0 °F 100% 29.78 in 0.5 mi Variable 5.8 mph 18.4 mph 0.00 in Fog , Rain Light Rain
8:31 PM 34.0 °F 28.8 °F 34.0 °F 100% 29.78 in 0.2 mi Variable 5.8 mph - 0.00 in Fog , Rain Light Rain
8:41 PM 34.0 °F 31.0 °F - N/A% 29.79 in 0.2 mi Variable 3.5 mph - 0.01 in Rain Light Rain
8:56 PM 34.0 °F 28.8 °F 34.0 °F 100% 29.82 in 0.5 mi WSW 5.8 mph - 0.01 in Fog , Rain Light Rain
9:19 PM 33.1 °F 26.9 °F 33.1 °F 100% 29.81 in 1.8 mi Variable 6.9 mph - 0.00 in   Overcast
9:21 PM 33.1 °F 26.9 °F 33.1 °F 100% 29.81 in 3.0 mi Variable 6.9 mph - 0.00 in   Overcast
9:29 PM 33.1 °F 27.7 °F 33.1 °F 100% 29.82 in 2.5 mi Variable 5.8 mph - 0.00 in   Overcast
9:32 PM 33.1 °F 27.7 °F 33.1 °F 100% 29.82 in 1.5 mi Variable 5.8 mph - 0.00 in   Overcast
9:36 PM 33.1 °F 28.7 °F 33.1 °F 100% 29.82 in 1.5 mi Variable 4.6 mph - 0.00 in   Overcast
9:43 PM 33.1 °F 26.9 °F 33.1 °F 100% 29.82 in 3.0 mi Variable 6.9 mph - 0.00 in   Overcast
9:56 PM 32.0 °F 24.2 °F 32.0 °F 100% 29.85 in 7.0 mi West 9.2 mph - 0.00 in   Overcast
10:56 PM 32.0 °F 24.2 °F 32.0 °F 100% 29.88 in 10.0 mi SW 9.2 mph - N/A   Scattered Clouds
11:11 PM 32.0 °F 24.8 °F 32.0 °F 100% 29.86 in 2.5 mi SW 8.1 mph - N/A   Mostly Cloudy
11:13 PM 32.0 °F 24.8 °F 32.0 °F 100% 29.86 in 1.2 mi SW 8.1 mph - N/A   Mostly Cloudy
11:21 PM 32.0 °F 24.8 °F 32.0 °F 100% 29.86 in 2.0 mi SSW 8.1 mph - N/A   Mostly Cloudy
11:28 PM 30.9 °F 22.8 °F 30.9 °F 100% 29.86 in 10.0 mi SSW 9.2 mph - N/A   Mostly Cloudy
11:56 PM 32.0 °F 23.6 °F 32.0 °F 100% 29.90 in 10.0 mi SW 10.4 mph 20.7 mph N/A   Mostly Cloudy